Regional Weather Roundup
Issued by NWS Upton, NY

Current Version | Previous Version | Graphics & Text | Print | Product List | Glossary Off
Versions: 1 2 3 4 5 6 7 8 9 10 11 12 13 14 15 16 17 18 19 20 21 22 23 24 25 26 27 28 29 30 31 32 33 34 35 36 37 38 39 40 41 42 43 44 45 46 47 48 49 50

643
ASUS41 KOKX 250405
RWROKX

REGIONAL WEATHER ROUNDUP
NATIONAL WEATHER SERVICE NEW YORK NY
1200 AM EDT SUN SEP 25 2016

NOTE: "FAIR" INDICATES FEW OR NO CLOUDS BELOW 12,000 FEET WITH NO
SIGNIFICANT WEATHER AND/OR OBSTRUCTIONS TO VISIBILITY.

NYZ071-072-176-178-NJZ106-104-250500-
NEW YORK CITY METRO AREA

CITY           SKY/WX    TMP DP  RH WIND       PRES   REMARKS
Central Park   CLEAR     61  44  53 VRB3      30.18S
LaGuardia APRT CLEAR     64  43  46 NE5       30.14S
Kennedy INTL   PTCLDY    60  44  55 N7        30.15S
Newark/Liberty PTCLDY    62  42  47 N10       30.15S
Bronx Bot Gard   N/A     55  43  62 NE2       30.15F
Wall St Helipt CLEAR     64  48  55 SE5       30.15S
Teterboro      CLEAR     58  44  60 N5        30.14S
$$

NYZ177-179-078>081-250500-
LONG ISLAND NEW YORK

CITY           SKY/WX    TMP DP  RH WIND       PRES   REMARKS
Farmingdale    CLEAR     56  46  69 NE5       30.14S
MacArthur/ISP  PTCLDY    57  45  64 N9        30.12F
Shirley        CLEAR     49  47  93 CALM      30.13F
Riverhead      NOT AVBL
Westhampton    CLEAR     43  40  89 CALM      30.14F
Southampton      N/A     54  46  76 NE2       30.09S
Bridgehampton    N/A     52  46  82 CALM      29.97F
East Hampton   FAIR      47  44  89 CALM      30.12S
Montauk          N/A     61  41  47 N8        30.13S
$$

NYZ052-065-067-250500-
HUDSON VALLEY

CITY           SKY/WX    TMP DP  RH WIND       PRES   REMARKS
White Plains   CLEAR     56  41  57 N12       30.14F
Newburgh       CLEAR     52  45  76 CALM      30.18R
Montgomery     CLEAR     49  43  80 CALM      30.17R
Poughkeepsie   CLEAR     45  42  89 E3        30.16S
Albany         CLEAR     48  40  73 CALM      30.17S
$$

NJZ001-105-106-008-010-013-015-019>022-104-250500-
NEW JERSEY

CITY           SKY/WX    TMP DP  RH WIND       PRES   REMARKS
Newark/Liberty PTCLDY    62  42  47 N10       30.15S
Teterboro      CLEAR     58  44  60 N5        30.14S
Caldwell       CLEAR     53  49  86 CALM      30.16F
Morristown     CLEAR     46  45  93 CALM      30.16S
Somerville     CLEAR     49  46  90 NW3       30.15R
Linden         NOT AVBL
Sussex         CLEAR     47  44  90 CALM      30.18S
Abdover          N/A     47  45  93 CALM      30.18S
Trenton        CLEAR     55  43  63 N7        30.15S
Millville      PTCLDY    55  55 100 CALM      30.15S
Atlantic City  CLEAR     55  51  86 CALM      30.14F
Wrightstown    CLEAR     56  49  79 NW5       30.12F
Toms River     CLEAR     47  45  93 CALM      30.15S
Belmar         CLEAR     55  52  89 CALM      30.15F
$$

PAZ047>061-062-071-250500-
EASTERN PENNSYLVANIA

CITY           SKY/WX    TMP DP  RH WIND       PRES   REMARKS
Philadelphia   CLEAR     62  44  51 NE6       30.15F
Allentown      CLEAR     51  42  71 N3        30.18R
Scranton       CLEAR     47  44  90 SE3       30.19S
$$

CTZ002-004>006-009-010-012-RIZ004-006-007-MAZ004-011-015-250500-
SOUTHERN NEW ENGLAND
 IN CT

CITY           SKY/WX    TMP DP  RH WIND       PRES   REMARKS
Bradley INTL   PTCLDY    49  42  77 CALM      30.14F
Hartford       CLEAR     50  47  89 CALM      30.14S
Danbury        CLEAR     46  42  86 W6        30.17R
Wtrbury/Oxford   N/A     48  37  66 N3        30.17R
Bridgeport     NOT AVBL
Meriden        CLEAR     47  43  86 CALM      30.14S
New Haven      CLEAR     56  45  66 NW5       30.14S
Chester        FAIR      50  43  76 CALM      30.13S
Groton         CLEAR     50  46  86 N3        30.12S
Wilimantic     CLEAR     47  45  93 CALM      30.14S

 IN RI

CITY           SKY/WX    TMP DP  RH WIND       PRES   REMARKS
Providence     CLEAR     52  41  66 W3        30.12S
Block Island   CLEAR     58  44  60 N6        30.12S
Westerly       CLEAR     48  43  82 CALM      30.13S
 IN MA

CITY           SKY/WX    TMP DP  RH WIND       PRES   REMARKS
Boston         CLEAR     56  39  53 NW13      30.09F
Worcester      CLEAR     52  34  50 NW9       30.12S
Westfield      CLEAR     45  42  89 CALM      30.13F
Provincetown   CLEAR     60  42  51 NW18G24   30.07F
Nantucket      PTCLDY    59  38  45 NW13      30.07F
$$

ANZ330-335-338-340-345-350-353-355-250500-
COASTAL MARINE OBSERVATIONS


STATION/POSITION TIME  SKY/WX   TEMP    WIND        PRES    VSBY  WAVE
                                AIR SEA DIR/SP/G                  HT/PER
                 (UTC)          (F)     (DEG/KT/KT) (MB)    (MI)  (FT/S)
NY HARB ENTRANCE 0250            67 72   20/ 12/ 14 1020.2          4/10
20S FIRE ISLAND  0250            67 71   10/ 14/ 16 1019.8          4/10
GREAT SOUTH BAY  0330            63 72  350/ 10/ 10   N/A
23 SSW MONTAUK P 0250            65 68  350/ 16/ 19 1019.9          4/10
15 E BARNEGAT LI 0330               71                N/A           5/11
HUDSON CANYON    0250            64 69              1020.0          5/11
KINGS POINT      0330            63 74              1020.6
EXECUTION ROCKS  0345            63     360/ 10/ 12   N/A
CENTRAL LI SOUND 0330            63 73  340/ 10/ 12   N/A           1/ 3
EASTERN LI SOUND NOT AVBL
ROBBINS REEF     0330            63     350/ 10/ 11 1021.0
$$


>>>>>>>>>>>>>>>>>>>>>>>>>>>> KEY <<<<<<<<<<<<<<<<<<<<<<<<<<<
>                                                          <
>     SKY/WX - Sky Condition/Present Weather               <
>     TMP    - Temperature in Fahrenheit                   <
>     DP     - Dew Point in Fahrenheit                     <
>     RH     - Relative Humidity in Percent                <
>     WIND   - Direction (from) and Speed in MPH           <
>     PRES   - Mean Sea Level Pressure (inches of Hg)      <
>     WCI    - Wind Chill Index                            <
>     VSB    - VISIBILITY IN MILES                         <
>     HX     - HEAT INDEX                                  <
>     TC     - TEMPERATURE IN CELSIUS                      <
>     VRB    - VARIABLE WIND DIRECTION                     <
>                                                          <
>>>>>>>>>>>>>>>>>>>>>>>>>>>> KEY <<<<<<<<<<<<<<<<<<<<<<<<<<<




USA.gov is the U.S. government's official web portal to all federal, state and local government web resources and services.